Souda, Greece

5:14 PM EEST on June 24, 2017 (GMT +0300)
Souda Air Base

Weather History for LGSA - January, 2013

Change the Weather History Date:

Friday, January 4, 2013

  Actual Average Record
Temperature  
Mean Temperature 50 °F -  
Max Temperature 56 °F 58 °F 68 °F (1997)
Min Temperature 44 °F 46 °F 41 °F (2000)
Degree Days  
Heating Degree Days 15    
Moisture  
Dew Point 46 °F    
Average Humidity 85    
Maximum Humidity 100    
Minimum Humidity 63    
Precipitation  
Precipitation 0.00 in 0.18 in - ()
Sea Level Pressure  
Sea Level Pressure 30.17 in    
Wind  
Wind Speed 2 mph ()    
Max Wind Speed 8 mph    
Max Gust Speed -    
Visibility 6.1 miles    
Events Rain    
Averages and records for this station are not official NWS values.
T = Trace of Precipitation, MM = Missing Value Source: Averaged Metar Reports

Daily Weather History Graph

Daily Weather History Graph

Search for Another Location

Airport or City:

Trip Planner

Search our weather history database for the weather conditions in past years. The results will help you decide how hot, cold, wet, or windy it might be!

Date:

Astronomy

Jan. 04, 2013 Rise Set
Actual Time 7:33 AM EET 5:24 PM EET
Civil Twilight 7:05 AM EET 5:52 PM EET
Nautical Twilight 6:33 AM EET 6:23 PM EET
Astronomical Twilight 6:02 AM EET 6:54 PM EET
Moon No Moon Rise 11:21 AM EET (1/4)
Length of Visible Light 10h 47m
Length of Day
9h 50m
Waning Gibbous, 58% of the Moon is Illuminated
Jan 4
Waning Gibbous
Jan 5
Last Quarter
Jan 11
New
Jan 19
First Quarter
Jan 27
Full

Hourly Weather History & Observations

Time (EET) Temp. Windchill Dew Point Humidity Pressure Visibility Wind Dir Wind Speed Gust Speed Precip Events Conditions
12:50 AM 50.0 °F - 46.4 °F 87% 30.30 in 6.2 mi Calm Calm - N/A   Scattered Clouds
1:50 AM 50.0 °F - 46.4 °F 87% 30.27 in 6.2 mi Calm Calm - N/A   Scattered Clouds
2:00 AM 50 °F - 46 °F 81% 30.31 in 6 mi Calm Calm - -   Scattered Clouds
4:50 AM 46.4 °F - 42.8 °F 87% 30.24 in 6.2 mi Calm Calm - N/A   Scattered Clouds
5:50 AM 46.4 °F 44.3 °F 42.8 °F 87% 30.21 in 6.2 mi SSW 4.6 mph - N/A   Scattered Clouds
6:20 AM 46.4 °F 42.4 °F 44.6 °F 93% 30.21 in 5.0 mi WNW 8.1 mph - N/A Rain Light Rain
6:50 AM 48.2 °F - 48.2 °F 100% 30.21 in 5.0 mi SSW 6.9 mph - N/A Rain Light Rain
7:20 AM 48.2 °F - 48.2 °F 100% 30.21 in 5.0 mi SSW 6.9 mph - N/A Rain Light Rain
7:50 AM 50.0 °F - 48.2 °F 94% 30.21 in 6.2 mi Calm Calm - N/A Rain Light Rain
8:00 AM 49 °F - 48 °F 94% 30.24 in 6 mi WNW 6.9 mph - - Rain Light Rain
8:20 AM 50.0 °F - 48.2 °F 94% 30.21 in 6.2 mi WNW 4.6 mph - N/A Rain Light Rain
8:50 AM 50.0 °F - 48.2 °F 94% 30.21 in 6.2 mi Calm Calm - N/A   Mostly Cloudy
9:20 AM 50.0 °F - 48.2 °F 94% 30.21 in 6.2 mi Calm Calm - N/A   Mostly Cloudy
9:50 AM 50.0 °F - 46.4 °F 87% 30.21 in 6.2 mi Calm Calm - N/A   Mostly Cloudy
10:20 AM 50.0 °F - 46.4 °F 87% 30.21 in 6.2 mi Calm Calm - N/A   Mostly Cloudy
10:50 AM 51.8 °F - 50.0 °F 94% 30.21 in 6.2 mi Calm Calm - N/A   Mostly Cloudy
11:20 AM 51.8 °F - 50.0 °F 94% 30.21 in 6.2 mi Calm Calm - N/A   Mostly Cloudy
11:50 AM 51.8 °F - 50.0 °F 94% 30.21 in 6.2 mi West 4.6 mph - N/A   Mostly Cloudy
12:20 PM 51.8 °F - 50.0 °F 94% 30.21 in 6.2 mi WNW 4.6 mph - N/A   Mostly Cloudy
12:50 PM 55.4 °F - 50.0 °F 82% 30.18 in 6.2 mi WNW 4.6 mph - N/A   Mostly Cloudy
1:20 PM 55.4 °F - 50.0 °F 82% 30.15 in 6.2 mi NNW 4.6 mph - N/A   Scattered Clouds
1:50 PM 55.4 °F - 48.2 °F 77% 30.12 in 6.2 mi NNW 6.9 mph - N/A   Scattered Clouds
2:00 PM 56 °F - 48 °F 66% 30.14 in 6 mi NNW 6.9 mph - -   Partly Cloudy
2:20 PM 55.4 °F - 48.2 °F 77% 30.12 in 6.2 mi North 4.6 mph - N/A   Scattered Clouds
2:50 PM 55.4 °F - 44.6 °F 67% 30.12 in 6.2 mi NNW 5.8 mph - N/A   Scattered Clouds
3:20 PM 55.4 °F - 44.6 °F 67% 30.12 in 6.2 mi North 4.6 mph - N/A   Scattered Clouds
3:50 PM 55.4 °F - 42.8 °F 63% 30.12 in 6.2 mi NNE 5.8 mph - N/A   Scattered Clouds
4:20 PM 55.4 °F - 42.8 °F 63% 30.12 in 6.2 mi Calm Calm - N/A   Scattered Clouds
4:50 PM 53.6 °F - 44.6 °F 72% 30.12 in 6.2 mi Calm Calm - N/A   Scattered Clouds
5:20 PM 53.6 °F - 44.6 °F 72% 30.12 in 6.2 mi Calm Calm - N/A   Scattered Clouds
5:50 PM 51.8 °F - 46.4 °F 82% 30.12 in 6.2 mi Calm Calm - N/A   Scattered Clouds
6:20 PM 51.8 °F - 46.4 °F 82% 30.12 in 6.2 mi Calm Calm - N/A   Partly Cloudy
6:50 PM 50.0 °F - 44.6 °F 82% 30.12 in 6.2 mi Calm Calm - N/A   Partly Cloudy
7:20 PM 50.0 °F - 44.6 °F 82% 30.12 in 6.2 mi Calm Calm - N/A   Partly Cloudy
7:50 PM 48.2 °F - 44.6 °F 87% 30.12 in 6.2 mi Calm Calm - N/A   Partly Cloudy
8:00 PM 48 °F - 44 °F 83% 30.14 in 6 mi Calm Calm - -   Scattered Clouds
8:20 PM 48.2 °F - 44.6 °F 87% 30.12 in 6.2 mi Calm Calm - N/A   Partly Cloudy
8:50 PM 46.4 °F - 42.8 °F 87% 30.12 in 6.2 mi Calm Calm - N/A   Partly Cloudy
9:20 PM 46.4 °F - 42.8 °F 87% 30.12 in 6.2 mi Calm Calm - N/A   Partly Cloudy
9:50 PM 46.4 °F - 42.8 °F 87% 30.09 in 6.2 mi Calm Calm - N/A   Partly Cloudy
10:20 PM 46.4 °F - 42.8 °F 87% 30.09 in 6.2 mi Calm Calm - N/A   Partly Cloudy
10:50 PM 44.6 °F - 41.0 °F 87% 30.06 in 6.2 mi Calm Calm - N/A   Partly Cloudy
11:50 PM 44.6 °F - 41.0 °F 87% 30.06 in 6.2 mi Calm Calm - N/A   Partly Cloudy